ROMMA est une association bénévole à but non lucratif. Votre soutien est indispensable : ADHERER à ROMMA ou FAIRE un DON

Briord - (01, Ain)

Bugey (281 m)   Longitude: 05° 29' 13" E   Latitude: 45° 46' 37" N Station partenaire n°15
 

Détail journalier du     <<     >>

Température Precipitation Humidité Pression Vent Dir Rafale Dir. rafale Ensol.
Heure (°C) (mm) (%) (hPa) (km/h) (km/h) (min)
01:00 24.9058101708S0
02:00 25.30551017011E0
03:00 22.9061101603ESE0
04:00 20.8070101603ESE0
05:00 19.7071101602ESE0
06:00 19.7076101605S0
07:00 19.0082101600---0
08:00 20.9081101705N0
09:00 25.3072101803SE55
10:00 26.206710173SE11SE60
11:00 29.006010171SSE6S60
12:00 30.605610173SE16SSE60
13:00 31.705310163SE16SSE60
14:00 32.305110163SE16SE60
15:00 33.304910152ONO15ONO60
16:00 33.804510153NO19N60
17:00 33.905210144NO16ONO60
18:00 34.704810131ONO13NO60
19:00 31.405610132NO19NO25
20:00 29.706010154NNO23NO0
21:00 26.6049101915NO52NO0
22:00 20.41.68310208NNE39OSO0
23:00 20.31.677101510ESE27E0
minuit 20.308010186ESE27E0

Graphique du 01-07-2019

 

Serveur OMMA